STARLINK-35519, 65919

Orbit data source: Space-Track

STARLINK-35519, 65919 is a payload satellite owned by SpaceX/Seattle (US) in LEO that was launched on Wed, 08 Oct 2025 UTC via an FALCON 9 launch vehicle from the Air Force Western Test Range (AFWTR). Payload-class satellites include a variety of spacecraft equipped with specific instruments for various scientific and technological missions. These include communications satellites like Starlink; space stations such as the ISS; scientific satellites like the Hubble; Earth observation satellites from companies like Planet Labs, Umbra, and HawkEye 360; GPS; miniature CubeSats for education and research; and military/defense satellites.

Loading next visibility...
Identifier
65919, 2025-225K
Orbit
LEO
Country
Flag of USUS
Related business
Manufacturer
SpaceX/Seattle
Mission
Operational Commercial Communications
Bus & Motor
STARLINK V2MO, Unknown motor
Mass
575 kg wet, ~530 kg dry
Launch date (UTC)
2025-10-08 (8 months ago)
Launch vehicle
FALCON 9
Launch site
Air Force Western Test Range (AFWTR)
Object type
Payload
Rocket body
Debris
Shape & HBR
Box + 2 Pan, 17.7 m
Radar Cross Section
36.964 m², Large (>1 m²)

Expand to show TLE details & history
Last TLE update: 9 hours ago

TLE from 9 hours ago
0 STARLINK-35519
1 65919U 25225K   26151.37996003  .00033861  00000-0  11500-2 0  9998
2 65919  53.1579 141.2154 0001314  72.3582 287.7562 15.30205255 37078
Epoch: 2026-05-31T09:07Z
TLE epoch observation values (Epoch: 2026-05-31T09:07:08.546Z)
Latitude
-0.00004°
Longitude
115.54729°
Altitude
475.824 km
Speed
7.629 km/s
True Right ascension
09h 24m 51s
True Declination
0° 00' 00"
Sunlit
Object was in daylight at epoch
Visualization orbit readout
Latitude
Unknown
Longitude
Unknown
Altitude
Unknown
Speed
Unknown
Apparent Right ascension
Unknown
Apparent Declination
Unknown
Sunlit
N/A
Visualization observer readout
Local Sidereal Time
03:18:40
Azimuth
Unknown
Elevation
Unknown
Doppler factor
Unknown
Orbital elements
Apogee altitude
476.357 km
Perigee altitude
474.556 km
Semi-major axis
6,853.593 km
Eccentricity
0.00013
Inclination
53.1579°
RAAN
141.2154°
Arg. of periapsis
72.3582°
True anomaly
287.74186°
Mean anomaly
287.7562°
Eccentric anomaly
287.74903°
Mean motion
3.8253 °/min
Orbital period
94.11 mins
BSTAR
0.00115
Loading maneuver chart data...
Computing Atmospheric mass density...
Loading historical data...
Loading historical data...
Loading historical data...
Loading historical data...
Loading historical data...
Loading historical data...
Loading historical data...

Documentation

Showing up to 5 results
|